Weather History for Edinburg, TX

Change the Weather History Date:

Sunday, January 6, 2013

  Actual Average (KMFE) Record (KMFE)
Temperature  
Mean Temperature 58 °F 60 °F  
Max Temperature 68 °F 70 °F 90 °F (1946)
Min Temperature 46 °F 50 °F 30 °F (1906)
Degree Days  
Heating Degree Days 8 7  
Month to date heating degree days 42  
Since 1 July heating degree days 279  
Cooling Degree Days 0 2  
Month to date cooling degree days 12  
Year to date cooling degree days 12  
Growing Degree Days 8 (Base 50)    
Moisture  
Dew Point 43 °F    
Average Humidity 62    
Maximum Humidity 86    
Minimum Humidity 32    
Precipitation  
Precipitation 0.00 in 0.03 in 0.73 in (1959)
Month to date precipitation 0.19  
Year to date precipitation 0.19  
Sea Level Pressure  
Sea Level Pressure 30.30 in    
Wind  
Wind Speed 7 mph (North)    
Max Wind Speed 14 mph    
Max Gust Speed 18 mph    
Visibility 7 miles    
Events      
T = Trace of Precipitation, MM = Missing Value Source: NWS Daily Summary

Daily Weather History Graph

Daily Weather History Graph

Search for Another Location

Airport:

Trip Planner

Search our weather history database for the weather conditions in past years. The results will help you decide how hot, cold, wet, or windy it might be!

Date:

Astronomy

Jan. 06, 2013 Rise Set
Actual Time 7:21 AM CST 5:55 PM CST
Civil Twilight 6:56 AM CST 6:20 PM CST
Nautical Twilight 6:27 AM CST 6:49 PM CST
Astronomical Twilight 5:59 AM CST 7:17 PM CST
Moon 1:50 AM CST (1/6) 1:13 PM CST (1/6)
Length of Visible Light 11h 24m
Length of Day
10h 33m
Waning Crescent, 33% of the Moon is Illuminated
Jan 6
Waning Crescent
Jan 11
New
Jan 18
First Quarter
Jan 26
Full
Feb 3
Last Quarter

Hourly Weather History & Observations

Time (CST) Temp. Dew Point Humidity Pressure Visibility Wind Dir Wind Speed Gust Speed Precip Events Conditions
12:15 AM 52.9 °F 45.5 °F 76% 30.29 in 7.0 mi NW 4.6 mph - N/A   Overcast
12:35 AM 53.1 °F 45.5 °F 75% 30.29 in 10.0 mi NW 4.6 mph - N/A   Overcast
12:55 AM 53.1 °F 45.7 °F 76% 30.29 in 7.0 mi NW 5.8 mph - N/A   Overcast
1:15 AM 53.1 °F 45.7 °F 76% 30.29 in 10.0 mi NW 5.8 mph - N/A   Overcast
1:35 AM 53.2 °F 45.9 °F 76% 30.29 in 7.0 mi WNW 4.6 mph - N/A   Overcast
1:55 AM 53.1 °F 46.2 °F 78% 30.28 in 7.0 mi WNW 5.8 mph - N/A   Overcast
2:15 AM 53.2 °F 46.4 °F 78% 30.29 in 7.0 mi NW 6.9 mph - N/A   Overcast
2:35 AM 53.6 °F 45.9 °F 75% 30.28 in 7.0 mi NW 8.1 mph - N/A   Overcast
2:55 AM 53.6 °F 45.5 °F 74% 30.28 in 10.0 mi NW 8.1 mph - N/A   Overcast
3:15 AM 53.6 °F 45.3 °F 74% 30.27 in 7.0 mi NW 6.9 mph - N/A   Overcast
3:35 AM 53.6 °F 45.5 °F 74% 30.28 in 7.0 mi NW 8.1 mph - N/A   Overcast
4:15 AM 53.6 °F 45.5 °F 74% 30.28 in 10.0 mi NW 6.9 mph - N/A   Overcast
4:35 AM 53.6 °F 45.5 °F 74% 30.28 in 10.0 mi NW 9.2 mph - N/A   Overcast
4:55 AM 53.6 °F 45.1 °F 73% 30.27 in 7.0 mi NW 8.1 mph - N/A   Overcast
5:15 AM 53.6 °F 45.5 °F 74% 30.27 in 7.0 mi NNW 6.9 mph - N/A   Overcast
5:35 AM 53.6 °F 45.5 °F 74% 30.27 in 5.0 mi NNW 6.9 mph - N/A   Haze
5:55 AM 53.8 °F 45.5 °F 74% 30.27 in 7.0 mi North 4.6 mph - N/A   Overcast
6:15 AM 53.8 °F 45.5 °F 74% 30.28 in 7.0 mi NNW 5.8 mph - N/A   Overcast
6:35 AM 53.6 °F 45.5 °F 74% 30.29 in 7.0 mi NNW 8.1 mph - N/A   Overcast
6:55 AM 53.2 °F 45.5 °F 75% 30.31 in 7.0 mi NNW 6.9 mph - N/A   Overcast
7:15 AM 53.1 °F 45.0 °F 74% 30.32 in 7.0 mi NNW 6.9 mph - N/A   Overcast
7:35 AM 52.7 °F 44.1 °F 72% 30.33 in 7.0 mi NNW 9.2 mph - N/A   Overcast
8:15 AM 51.8 °F 43.7 °F 74% 30.33 in 7.0 mi North 10.4 mph - N/A   Overcast
8:35 AM 52.0 °F 43.7 °F 73% 30.34 in 7.0 mi North 11.5 mph - N/A   Overcast
8:55 AM 53.4 °F 44.1 °F 71% 30.35 in 5.0 mi North 11.5 mph - N/A   Haze
9:35 AM 55.8 °F 44.6 °F 66% 30.37 in 7.0 mi NNW 12.7 mph - N/A   Clear
9:55 AM 57.6 °F 44.8 °F 62% 30.36 in 7.0 mi NNW 10.4 mph - N/A   Scattered Clouds
10:15 AM 57.4 °F 44.4 °F 62% 30.36 in 7.0 mi North 12.7 mph - N/A   Mostly Cloudy
10:35 AM 57.6 °F 44.1 °F 61% 30.37 in 7.0 mi NW 9.2 mph - N/A   Mostly Cloudy
10:55 AM 59.0 °F 44.4 °F 58% 30.37 in 5.0 mi NNW 11.5 mph - N/A   Haze
11:15 AM 58.1 °F 43.9 °F 59% 30.37 in 7.0 mi NW 11.5 mph - N/A   Overcast
11:35 AM 60.3 °F 43.5 °F 54% 30.36 in 5.0 mi NNW 8.1 mph 17.3 mph N/A   Haze
11:55 AM 61.7 °F 43.2 °F 51% 30.34 in 7.0 mi NNW 13.8 mph - N/A   Clear
12:15 PM 63.1 °F 42.8 °F 47% 30.32 in 5.0 mi North 10.4 mph - N/A   Haze
12:35 PM 63.9 °F 42.4 °F 46% 30.31 in 7.0 mi NNW 9.2 mph 16.1 mph N/A   Clear
12:55 PM 64.9 °F 41.5 °F 42% 30.30 in 5.0 mi North 11.5 mph - N/A   Haze
1:15 PM 65.5 °F 39.6 °F 39% 30.29 in 7.0 mi NNE 11.5 mph 18.4 mph N/A   Clear
1:35 PM 66.2 °F 39.7 °F 38% 30.28 in 7.0 mi North 10.4 mph - N/A   Clear
1:55 PM 66.0 °F 39.0 °F 37% 30.27 in 7.0 mi NNE 12.7 mph - N/A   Clear
2:15 PM 66.4 °F 38.3 °F 36% 30.27 in 7.0 mi NNE 6.9 mph - N/A   Clear
2:55 PM 67.5 °F 37.8 °F 34% 30.25 in 4.0 mi NNE 10.4 mph - N/A   Haze
3:15 PM 67.5 °F 37.6 °F 33% 30.25 in 7.0 mi NNE 11.5 mph - N/A   Clear
3:35 PM 68.0 °F 36.9 °F 32% 30.24 in 7.0 mi NNE 10.4 mph 18.4 mph N/A   Clear
3:55 PM 61.0 °F 37.6 °F 42% 30.25 in 7.0 mi NNE 13.8 mph - N/A   Clear
4:15 PM 67.6 °F 37.2 °F 33% 30.25 in 7.0 mi NNE 5.8 mph - N/A   Clear
4:55 PM 67.1 °F 37.2 °F 33% 30.25 in 7.0 mi North 8.1 mph - N/A   Clear
5:15 PM 66.4 °F 37.4 °F 34% 30.26 in 7.0 mi NNE 4.6 mph - N/A   Clear
5:35 PM 66.0 °F 38.1 °F 36% 30.26 in 7.0 mi NE 8.1 mph - N/A   Scattered Clouds
5:55 PM 64.4 °F 39.4 °F 40% 30.26 in 7.0 mi ENE 10.4 mph - N/A   Mostly Cloudy
6:15 PM 62.8 °F 40.1 °F 43% 30.27 in 10.0 mi ENE 4.6 mph - N/A   Scattered Clouds
6:35 PM 60.4 °F 42.8 °F 52% 30.28 in 7.0 mi East 8.1 mph - N/A   Scattered Clouds
6:55 PM 58.3 °F 42.8 °F 56% 30.28 in 7.0 mi East 6.9 mph - N/A   Scattered Clouds
7:15 PM 57.2 °F 42.8 °F 59% 30.29 in 10.0 mi East 5.8 mph - N/A   Scattered Clouds
7:35 PM 56.1 °F 43.0 °F 61% 30.30 in 7.0 mi East 3.5 mph - N/A   Clear
7:55 PM 55.4 °F 43.2 °F 63% 30.31 in 7.0 mi East 3.5 mph - N/A   Clear
8:15 PM 53.2 °F 43.7 °F 70% 30.30 in 7.0 mi ENE 3.5 mph - N/A   Clear
8:35 PM 53.1 °F 43.7 °F 71% 30.31 in 7.0 mi ENE 3.5 mph - N/A   Clear
8:55 PM 52.0 °F 43.7 °F 73% 30.31 in 7.0 mi Calm Calm - N/A   Clear
9:15 PM 52.0 °F 44.1 °F 74% 30.30 in 7.0 mi Calm Calm - N/A   Clear
9:35 PM 51.8 °F 43.5 °F 73% 30.31 in 7.0 mi Calm Calm - N/A   Clear
9:55 PM 50.7 °F 43.7 °F 77% 30.31 in 7.0 mi Calm Calm - N/A   Clear
10:15 PM 50.9 °F 43.7 °F 76% 30.32 in 7.0 mi Calm Calm - N/A   Clear
10:35 PM 49.1 °F 43.3 °F 81% 30.32 in 7.0 mi Calm Calm - N/A   Clear
10:55 PM 48.4 °F 43.0 °F 82% 30.33 in 7.0 mi West 4.6 mph - N/A   Clear
11:35 PM 47.5 °F 43.0 °F 84% 30.32 in 7.0 mi WNW 3.5 mph - N/A   Clear
11:55 PM 46.9 °F 43.0 °F 86% 30.32 in 7.0 mi Calm Calm - N/A   Clear